User: anonymous   Login
Location: Bismarck
(46.7731°N, 100.8200°W)
Time: 10:37:47
(UTC-05:00)
Language:

Landsat 7 - Orbit

View from above orbital plane
View from above orbital plane
View from above satellite
View from above satellite

Ground track
Ground track

The orbit data is extracted from the following two-line orbital elements,

1 25682U 99020A   18145.23563992 -.00000015 +00000-0 +66541-5 0  9995
2 25682 098.1684 215.8751 0001277 070.8004 289.3311 14.57128598016404
Epoch (UTC): 25 May 2018 05:39:19
Eccentricity: 0.0001277
inclination: 98.1684°
perigee height: 701 km
apogee height: 703 km
right ascension of ascending node: 215.8751°
argument of perigee: 70.8004°
revolutions per day: 14.57128598
mean anomaly at epoch: 289.3311°
orbit number at epoch: 1640

The dashed part of the orbit path shows where the satellite is in the earth's shadow,  

DLR